Showing default

FLOCK 4Q 23, 58307

Orbit data source: Space-Track

FLOCK 4Q 23, 58307 is a payload satellite owned by Planet (US) in SSO that was launched on Sat, 11 Nov 2023 UTC via an FALCON 9 launch vehicle from the Air Force Western Test Range (AFWTR). Payload-class satellites include a variety of spacecraft equipped with specific instruments for various scientific and technological missions. These include communications satellites like Starlink; space stations such as the ISS; scientific satellites like the Hubble; Earth observation satellites from companies like Planet Labs, Umbra, and HawkEye 360; GPS; miniature CubeSats for education and research; and military/defense satellites.

Loading next visibility...
Identifier
58307, 2023-174BD
Orbit
SSO
Last TLE update
18 hours ago
Origin
Manufacturer
Planet
Mission
Operational Commercial Imaging
Bus & Motor
CUBESAT 3U, Unknown motor
Mass
5.7 kg wet, 5.7 kg dry
Launch date (UTC)
2023-11-11 (2 years ago)
Launch vehicle
FALCON 9
Launch site
Air Force Western Test Range (AFWTR)
Object type
Payload
Rocket body
Debris
Shape & HBR
Box + 2 Pan, 0.1 m
Radar Cross Section
0.035 m², Medium (>0.1 m² and < 1m²)

Expand to show TLE details & history

TLE from 18 hours ago
0 FLOCK 4Q 23
1 58307U 23174BD  25210.72721798  .00019443  00000-0  51764-3 0  9990
2 58307  97.4200 291.5407 0007989 216.6550 143.4150 15.38209152 95999
Epoch: 2025-07-29T17:27Z
TLE epoch observation values (Epoch: 2025-07-29T17:27:11.633Z)
Latitude
0.00005°
Longitude
82.12557°
Altitude
458.903 km
Speed
7.635 km/s
True Right ascension
19h 26m 09s
True Declination
0° 00' 00"
Sunlit
Object was in full shadow at epoch
Visualization orbit readout
Latitude
-58.2162°
Longitude
94.96872°
Altitude
473.621 km
Speed
7.628 km/s
Apparent Right ascension
16h 11m 03s
Apparent Declination
-61° 07' 40"
Sunlit
Object is in full shadow
Visualization observer readout
Local Sidereal Time
01:28:59
Azimuth
215.728° SW
Elevation
-57.507°
Doppler factor
1
Orbital elements
Apogee altitude
453.801 km
Perigee altitude
442.894 km
Semi-major axis
6,826.484 km
Eccentricity
0.0008
Inclination
97.42°
RAAN
291.5407°
Arg. of periapsis
216.655°
True anomaly
143.46952°
Mean anomaly
143.415°
Eccentric anomaly
143.44226°
Mean motion
3.84811 °/min
Orbital period
93.55 mins
BSTAR
0.00051764
Loading maneuver chart data...
Loading SW <> Apogee altitude chart data...
Loading historical data...
Loading historical data...
Loading historical data...
Loading historical data...
Loading historical data...
Loading historical data...
Loading historical data...
|